Temperature
19 18 18 19 20 20 19 19 19 20 20 19 18 18 19 19 19 19 19 17 16 14 13 14 14 14 15 14 14 14 14 13 12 12 11 10 10 10 10 10 10 9 9 9
19 18 19 20 19 19 19 18 18 20 19 19 18 18 19 19 18 19 18 17 15 14 13 13 13 14 14 14 14 14 13 13 12 12 11 11 10 10 10 10 10 9 9 9
18 19 19 19 19 18 18 17 18 19 19 18 17 17 18 18 18 18 18 17 15 14 13 13 13 13 14 14 14 14 13 13 12 12 12 11 10 10 10 9 9 9 9 9
19 20 19 18 18 18 17 19 19 18 17 17 18 16 18 16 16 16 17 16 15 14 13 13 13 13 13 13 13 13 13 12 12 12 11 11 10 9 9 9 8 8 8 8
19 18 17 17 18 18 18 18 18 18 17 16 17 17 17 16 15 15 15 16 15 14 13 13 12 13 13 13 13 13 12 12 12 11 11 10 10 9 9 8 8 7 7 7
18 19 18 18 18 18 18 17 17 16 16 15 17 17 17 16 16 15 15 16 15 14 13 12 12 12 13 12 12 12 12 12 11 11 11 10 10 9 8 8 7 7 7 7
17 18 18 18 16 16 17 16 15 15 14 15 19 18 18 19 18 17 16 16 15 14 13 12 12 12 12 12 12 12 11 11 11 10 10 10 9 8 8 7 7 7 7 6
17 17 17 17 17 16 15 16 16 16 17 18 17 17 18 17 18 19 17 16 15 14 13 12 12 12 12 12 11 11 11 11 10 10 9 9 8 8 7 7 7 7 6 6
18 17 17 17 17 17 17 16 18 16 17 17 17 19 16 17 17 17 17 16 15 14 13 12 11 11 11 11 11 11 10 10 10 9 9 8 8 7 7 7 7 6 6 6
18 17 15 15 16 15 16 17 16 15 15 15 18 19 17 15 15 16 16 16 15 14 13 12 11 11 11 11 10 10 10 10 9 9 8 8 7 7 7 7 6 6 6 6
18 17 15 14 14 15 15 16 16 16 17 16 16 17 18 17 16 15 16 17 15 14 13 12 11 11 10 10 10 10 10 9 9 8 8 7 7 7 6 6 6 5 5 5
17 17 16 15 16 16 16 16 16 15 16 16 15 16 17 17 17 17 17 17 16 15 14 12 11 10 10 10 10 9 9 9 8 8 7 7 6 6 6 6 5 5 5 5
17 16 16 15 14 14 15 16 17 16 16 15 15 16 16 16 17 17 17 16 16 15 13 12 11 10 9 9 9 9 8 8 8 7 7 6 6 6 5 5 5 5 5 4
17 16 16 16 16 14 15 15 16 15 14 14 15 17 16 16 16 16 16 16 15 14 13 12 10 10 9 8 8 8 8 7 7 7 6 6 6 5 5 5 5 4 4 4
15 15 16 17 17 17 17 16 15 14 15 15 16 16 17 17 16 16 16 15 14 13 12 11 10 9 8 8 8 7 7 7 6 6 6 5 5 5 5 4 4 4 3 3
14 15 16 16 16 16 15 16 16 15 15 15 15 15 17 17 16 16 15 15 13 12 11 10 10 9 8 8 7 7 7 6 6 5 5 5 5 4 4 4 3 3 3 2
14 14 15 14 15 15 13 15 15 15 15 15 14 15 15 15 14 14 14 14 13 12 11 10 9 8 8 7 7 7 6 6 5 5 5 5 4 4 3 3 3 2 2 1
14 14 14 13 14 12 15 16 16 16 16 16 15 15 15 14 13 13 13 12 12 11 10 9 8 8 7 7 6 6 5 5 5 5 4 4 3 3 3 2 2 1 1 0
13 14 13 12 12 12 15 15 15 15 15 16 15 15 13 12 11 11 11 11 11 10 9 8 8 7 7 6 6 5 5 5 4 4 4 3 3 2 2 2 1 0 -0 -1
11 12 12 11 11 11 15 13 14 14 13 14 14 13 12 11 9 9 10 10 9 9 8 8 7 6 6 5 5 5 5 4 4 3 3 3 2 2 1 1 0 -0 -1 -1
10 10 10 10 10 11 14 12 13 12 12 13 13 13 12 10 9 10 9 9 8 8 7 7 6 6 5 5 5 4 4 4 3 3 2 2 2 1 1 0 -0 -1 -1 -2
10 10 10 10 10 11 11 11 12 12 12 12 12 12 11 10 9 9 8 8 7 7 6 6 6 5 5 4 4 4 4 3 3 2 2 2 1 0 -0 -1 -1 -1 -2 -2
12 12 12 12 11 13 12 12 12 12 12 11 11 11 11 9 8 8 7 7 6 6 6 5 5 5 4 4 4 3 3 2 2 2 1 1 0 -0 -1 -1 -2 -2 -3 -3
12 12 12 12 13 12 12 12 12 11 11 11 10 10 10 9 8 7 7 6 6 5 5 5 4 4 4 3 3 3 2 2 1 1 0 -0 -1 -1 -2 -2 -3 -3 -3 -4
12 10 10 11 12 12 11 11 11 11 10 10 9 9 9 8 7 7 6 6 5 5 4 4 4 3 3 3 2 2 2 1 0 -0 -0 -1 -1 -2 -2 -3 -3 -4 -4 -5
11 10 10 10 12 11 11 11 10 10 9 9 8 8 7 7 7 6 6 5 5 4 4 3 3 3 3 2 2 2 1 0 -1 -1 -1 -2 -2 -3 -3 -4 -4 -4 -5 -5
Wind_Speed
7 5 7 8 8 7 8 9 11 7 4 3 8 11 8 7 7 7 7 9 10 9 8 8 8 9 9 9 9 8 7 6 5 3 3 3 2 1 1 1 2 3 4 5
6 9 10 5 5 5 7 9 11 8 3 2 7 11 8 7 9 8 9 10 11 10 8 8 8 8 8 8 8 8 8 7 6 4 3 3 2 1 1 1 0 2 3 3
11 4 3 1 3 6 9 10 10 8 4 5 6 9 10 7 6 5 7 11 11 11 10 9 9 9 8 8 7 8 8 7 7 6 4 3 2 0 0 0 0 1 1 2
9 5 4 4 7 7 8 5 5 5 5 5 6 5 5 10 8 8 8 10 11 11 10 10 9 9 8 7 7 8 8 8 6 5 4 3 2 2 1 1 1 1 2 2
6 5 4 6 7 7 2 3 3 5 6 7 7 7 6 12 10 12 11 10 11 11 10 10 10 9 8 7 7 7 8 7 6 5 4 3 4 2 2 2 2 2 1 2
10 2 5 3 2 3 3 1 5 5 4 6 9 9 5 10 13 15 13 12 12 11 11 10 9 10 8 6 6 7 8 7 5 5 5 5 4 3 3 3 3 3 3 1
9 10 7 4 4 2 3 4 4 5 5 7 3 4 6 5 10 15 16 14 13 12 11 11 10 9 9 8 6 6 7 6 5 5 4 4 3 2 2 3 3 3 3 3
9 9 13 9 8 7 8 6 5 4 3 0 2 6 2 6 5 10 16 15 14 12 11 11 11 10 9 9 7 6 7 6 5 4 3 3 3 2 2 2 3 3 3 3
6 3 5 5 4 3 6 8 4 4 7 5 6 5 4 3 3 4 13 15 14 13 12 11 11 10 10 9 7 7 7 6 5 4 3 4 3 2 2 3 3 3 4 4
6 2 5 3 1 4 4 3 3 4 4 5 7 7 5 7 7 6 10 13 13 13 12 11 10 10 9 8 7 7 7 6 4 3 3 1 2 2 3 4 5 5 5 4
7 4 6 5 9 9 7 4 4 4 4 2 4 2 4 6 10 10 10 11 13 13 12 11 10 9 9 8 7 6 6 5 4 2 2 1 2 2 3 4 5 5 5 6
7 4 5 5 3 1 7 8 8 4 5 4 3 4 3 7 6 7 8 9 11 12 11 11 10 10 9 8 7 7 6 5 3 2 1 2 2 3 4 5 6 6 7 7
8 5 4 3 1 3 5 7 7 5 4 4 4 4 2 5 5 6 6 7 8 11 11 10 10 9 9 8 7 7 6 5 3 2 1 3 4 4 5 6 6 7 7 8
2 4 6 3 2 7 6 8 9 7 5 6 9 8 5 7 7 7 7 7 8 10 10 10 9 9 8 8 7 6 5 4 3 1 2 3 4 5 6 6 7 8 8 9
2 4 6 4 3 3 4 8 11 11 10 8 8 10 7 1 3 6 8 9 9 10 10 10 9 8 8 7 6 5 4 3 2 2 3 5 5 5 6 7 8 8 9 10
4 4 3 4 2 2 5 7 9 12 12 13 13 14 6 3 4 4 5 7 9 10 10 9 9 8 8 7 6 5 3 3 2 3 4 5 6 6 7 8 8 9 9 10
6 4 3 3 3 1 7 11 13 11 10 9 12 9 1 2 3 2 2 4 7 8 9 9 8 7 7 6 5 4 2 1 2 4 5 6 7 7 8 8 9 9 10 10
5 5 3 3 3 7 7 1 3 7 9 10 8 5 2 3 5 4 2 3 6 8 9 8 8 7 6 5 4 3 1 1 3 5 6 7 7 8 8 8 9 10 10 10
2 4 4 3 5 8 7 5 5 4 5 5 5 1 6 8 5 1 3 5 7 8 9 8 7 7 5 4 3 2 2 3 5 6 7 7 7 8 8 9 10 10 10 10
2 2 3 4 5 7 2 2 3 3 5 2 2 4 8 7 2 3 6 9 10 10 8 8 6 5 4 3 3 1 3 4 6 7 7 7 7 8 10 11 11 9 9 10
4 4 6 6 7 7 2 5 5 5 4 2 3 4 7 6 4 6 9 9 9 9 8 7 5 4 3 2 1 2 4 6 7 7 7 8 8 9 10 10 9 10 10 10
9 8 8 7 7 8 7 7 6 4 4 3 3 4 6 7 8 8 8 8 8 7 6 5 4 2 2 1 1 4 6 7 7 7 8 9 9 9 9 10 10 9 9 10
9 8 6 8 7 2 8 5 4 4 3 3 3 4 8 9 8 7 7 7 6 6 5 4 3 1 1 2 3 5 7 7 7 8 9 9 9 9 9 9 10 9 9 9
6 3 1 2 3 6 6 3 4 3 3 3 4 5 7 8 8 8 7 6 5 5 4 3 2 2 3 4 4 5 7 7 8 9 9 9 9 9 9 8 8 8 8 9
6 6 4 5 3 4 5 5 4 4 4 4 4 4 6 8 8 7 6 5 5 4 3 2 2 3 5 5 6 7 7 7 8 9 9 9 8 9 9 9 8 10 9 11
5 7 6 5 3 4 3 4 5 6 5 5 6 5 5 6 7 6 5 4 4 4 3 2 3 4 5 6 7 8 7 7 8 8 8 7 7 8 8 10 11 14 16 23
Wind_Direction
193 230 242 244 228 261 317 315 309 313 119 188 251 262 245 184 187 200 170 138 120 113 108 99 92 86 84 87 98 107 112 108 105 106 114 117 136 177 199 231 273 282 266 261
224 235 252 278 357 337 298 285 283 288 132 183 270 270 248 188 189 189 166 141 132 130 120 113 107 102 100 100 103 106 108 106 99 96 93 90 94 82 80 47 7 307 298 281
232 232 103 133 253 256 257 255 268 296 331 239 257 279 230 173 164 158 154 141 140 142 137 126 112 103 98 99 104 106 104 100 98 101 97 88 84 52 84 151 153 263 289 316
243 236 176 226 249 244 264 284 279 300 305 282 206 276 217 165 169 178 171 150 143 139 134 130 123 112 104 100 100 103 105 104 105 107 101 111 101 91 99 103 178 245 199 185
237 161 173 230 246 250 250 27 323 281 271 280 256 249 258 155 182 189 183 167 149 143 139 133 127 124 115 108 107 109 106 104 103 98 90 70 61 48 45 21 13 346 293 180
255 199 192 217 65 355 95 243 253 250 252 260 235 217 254 182 195 183 180 170 154 147 141 135 129 125 121 120 118 118 113 110 107 100 96 82 64 27 22 12 6 346 329 311
239 227 192 150 151 159 190 224 246 215 214 240 211 201 260 168 177 176 175 168 158 153 150 149 149 145 142 140 136 130 124 120 112 100 90 95 83 28 26 22 353 337 327 326
220 224 191 181 197 185 194 223 246 277 265 70 179 230 234 65 60 159 162 160 158 160 161 161 161 153 149 149 148 136 123 114 102 92 77 74 78 60 28 3 331 314 306 301
237 181 97 131 193 249 197 213 262 313 303 286 253 202 110 78 48 123 155 160 166 168 165 164 160 153 151 153 151 137 127 116 102 88 72 51 35 40 8 330 311 303 297 292
272 165 139 105 103 259 292 301 180 205 244 264 265 237 191 174 188 190 173 170 170 167 164 162 159 154 151 148 136 124 120 117 108 86 80 56 359 16 343 314 303 297 298 298
229 230 144 165 201 197 188 225 235 245 269 269 293 333 35 148 173 185 195 181 173 170 166 162 159 152 143 138 138 134 128 123 117 94 65 15 351 339 315 299 293 295 294 294
201 243 202 175 146 66 197 205 204 220 241 218 242 275 63 80 117 159 185 184 173 166 161 157 153 146 145 149 150 144 141 135 130 112 43 327 314 302 296 294 298 302 300 296
177 212 204 143 205 207 224 227 230 255 297 262 246 244 148 135 134 150 167 174 165 156 153 150 149 150 153 155 152 150 151 148 142 130 299 301 302 304 302 301 303 303 298 293
185 234 234 215 103 159 194 203 206 212 223 242 236 254 215 192 182 175 171 169 156 150 151 151 153 153 153 154 153 152 151 145 146 167 260 284 289 293 294 296 295 292 289 288
180 251 263 275 97 141 207 202 198 211 227 241 258 270 285 292 177 169 165 162 154 153 155 156 156 153 150 150 150 146 145 150 159 217 261 269 275 282 286 286 286 285 285 284
199 254 281 271 205 218 263 249 229 223 231 245 265 274 294 37 73 98 140 155 162 162 158 154 151 147 149 152 151 145 160 173 183 241 263 271 278 280 280 280 282 283 283 282
184 213 213 246 200 206 255 232 228 227 223 220 244 257 11 67 89 92 105 151 162 157 151 150 148 145 143 143 142 154 172 179 231 259 268 272 273 275 276 279 284 283 283 283
189 202 224 226 178 234 240 129 199 231 245 232 238 246 171 120 98 66 87 148 148 140 139 139 136 134 131 129 137 148 170 234 258 265 271 273 274 276 280 282 282 282 281 282
342 200 215 195 224 262 256 198 171 197 266 245 238 231 106 98 83 62 80 103 122 121 122 122 122 125 128 140 154 165 233 263 271 274 277 278 280 284 286 284 282 282 284 286
304 284 220 191 210 237 238 101 101 119 267 335 114 116 128 123 155 196 121 99 98 99 101 106 109 118 139 157 148 185 259 273 277 278 279 283 285 285 284 281 282 283 285 285
165 196 208 212 225 251 173 153 135 172 227 73 88 127 147 165 170 135 117 106 105 105 108 115 124 140 158 149 154 248 268 272 275 281 286 286 283 281 281 282 282 284 285 285
173 180 196 194 222 243 162 159 187 185 133 119 117 135 140 122 111 114 114 116 118 120 126 132 138 151 161 175 232 266 271 273 281 287 287 285 283 284 288 286 286 285 288 291
188 192 194 196 208 194 159 159 133 117 126 128 132 131 136 136 138 133 133 133 134 138 139 137 143 177 245 253 250 266 273 281 287 288 286 286 288 287 286 287 290 292 289 287
198 133 163 262 191 155 166 147 144 139 131 113 125 135 140 145 145 146 145 144 144 141 140 142 157 245 271 277 278 274 284 289 290 289 290 291 293 292 289 287 286 288 287 287
169 155 191 236 213 149 190 198 175 148 132 123 118 130 145 145 146 148 149 151 148 142 141 155 215 259 273 282 285 284 287 292 292 290 289 291 290 291 293 288 283 287 277 283
160 170 184 213 190 170 157 145 140 145 152 145 136 125 122 134 140 140 144 143 139 145 157 200 249 270 282 290 289 288 288 289 291 292 290 289 289 290 290 292 293 285 286 295
Height
1524 1527 1526 1521 1519 1519 1520 1522 1522 1515 1513 1515 1517 1515 1511 1511 1513 1515 1517 1519 1521 1523 1524 1524 1523 1524 1525 1526 1527 1529 1531 1533 1534 1536 1538 1539 1540 1541 1541 1541 1541 1541 1541 1541
1523 1525 1518 1516 1516 1519 1522 1525 1523 1515 1511 1514 1515 1512 1506 1506 1509 1512 1514 1517 1520 1523 1524 1524 1524 1525 1525 1527 1528 1530 1531 1533 1534 1536 1537 1538 1539 1539 1540 1540 1540 1539 1539 1538
1520 1517 1515 1516 1518 1522 1523 1524 1521 1518 1513 1512 1516 1514 1504 1503 1506 1509 1512 1515 1519 1521 1523 1524 1525 1525 1526 1527 1529 1530 1532 1533 1535 1536 1537 1538 1539 1539 1539 1539 1538 1538 1537 1536
1512 1510 1514 1517 1518 1519 1523 1515 1515 1517 1522 1521 1516 1524 1503 1502 1506 1508 1511 1514 1517 1520 1522 1524 1524 1525 1527 1528 1530 1531 1533 1534 1535 1536 1537 1538 1538 1538 1538 1538 1537 1536 1535 1534
1510 1510 1514 1517 1516 1515 1516 1516 1516 1518 1522 1525 1515 1520 1505 1501 1506 1507 1509 1512 1515 1519 1521 1523 1524 1525 1527 1528 1530 1531 1533 1534 1535 1536 1537 1537 1537 1537 1536 1536 1535 1534 1533 1531
1507 1508 1510 1512 1513 1514 1515 1517 1518 1519 1524 1531 1510 1514 1506 1499 1497 1500 1505 1509 1513 1516 1519 1522 1523 1525 1527 1528 1530 1531 1533 1534 1534 1535 1535 1535 1535 1535 1534 1533 1532 1531 1530 1529
1509 1506 1507 1510 1514 1516 1517 1524 1530 1532 1535 1525 1497 1502 1497 1483 1484 1490 1498 1504 1510 1514 1517 1519 1521 1523 1525 1527 1529 1530 1532 1533 1533 1533 1533 1533 1533 1532 1531 1530 1529 1528 1527 1526
1508 1506 1501 1505 1509 1513 1516 1518 1527 1527 1520 1509 1506 1505 1491 1484 1483 1486 1493 1500 1506 1511 1515 1517 1520 1522 1524 1526 1528 1529 1530 1531 1531 1531 1531 1531 1530 1529 1529 1528 1526 1525 1524 1522
1499 1502 1498 1501 1503 1507 1510 1514 1508 1517 1513 1514 1504 1490 1493 1486 1487 1488 1492 1498 1503 1508 1512 1515 1518 1520 1522 1524 1526 1527 1528 1529 1529 1529 1529 1528 1527 1527 1526 1525 1523 1522 1520 1518
1492 1499 1503 1504 1505 1507 1507 1505 1511 1518 1523 1522 1501 1491 1492 1493 1490 1490 1492 1495 1500 1505 1509 1513 1515 1518 1520 1522 1523 1525 1526 1526 1527 1527 1526 1526 1525 1524 1522 1521 1520 1518 1516 1514
1491 1498 1506 1507 1506 1506 1508 1508 1507 1508 1506 1517 1514 1500 1484 1483 1485 1488 1490 1493 1497 1501 1505 1509 1513 1515 1517 1519 1521 1522 1523 1524 1524 1524 1523 1522 1521 1520 1519 1517 1516 1514 1511 1509
1488 1493 1498 1499 1495 1496 1497 1500 1503 1512 1508 1505 1513 1505 1483 1482 1482 1485 1488 1491 1495 1498 1502 1506 1510 1512 1514 1516 1518 1519 1520 1520 1521 1520 1520 1519 1518 1517 1515 1514 1512 1509 1507 1504
1486 1492 1499 1504 1504 1500 1498 1495 1495 1498 1503 1507 1510 1500 1485 1482 1483 1484 1486 1489 1492 1496 1499 1503 1506 1509 1511 1513 1515 1516 1517 1517 1517 1517 1517 1516 1515 1513 1511 1509 1507 1504 1501 1498
1483 1487 1491 1494 1491 1493 1495 1493 1494 1499 1506 1505 1499 1490 1485 1483 1482 1483 1485 1487 1490 1493 1496 1500 1503 1506 1509 1511 1512 1513 1514 1514 1514 1514 1513 1512 1511 1509 1507 1504 1502 1499 1495 1491
1483 1487 1482 1481 1481 1483 1485 1488 1491 1495 1495 1497 1489 1485 1479 1478 1479 1480 1482 1485 1488 1491 1494 1498 1501 1504 1506 1508 1510 1510 1511 1511 1511 1510 1509 1508 1506 1504 1502 1499 1496 1492 1488 1484
1483 1485 1482 1483 1481 1483 1486 1485 1485 1487 1487 1487 1485 1482 1476 1476 1477 1479 1481 1483 1485 1488 1492 1495 1499 1502 1504 1506 1507 1507 1507 1507 1507 1506 1505 1503 1501 1499 1496 1493 1489 1485 1481 1477
1482 1484 1486 1490 1482 1485 1491 1480 1480 1480 1477 1479 1483 1478 1475 1476 1477 1479 1480 1481 1483 1486 1489 1493 1497 1500 1502 1503 1504 1504 1504 1504 1503 1502 1500 1499 1496 1493 1490 1487 1482 1478 1474 1469
1479 1482 1485 1488 1489 1500 1479 1467 1467 1470 1469 1470 1470 1471 1472 1475 1477 1478 1479 1480 1482 1485 1488 1491 1495 1497 1499 1500 1501 1501 1500 1500 1499 1497 1496 1494 1491 1488 1484 1480 1476 1472 1467 1462
1476 1479 1484 1491 1493 1485 1471 1467 1468 1470 1470 1465 1467 1468 1471 1473 1476 1478 1479 1480 1481 1484 1487 1490 1492 1495 1496 1497 1497 1497 1497 1496 1495 1493 1491 1489 1486 1482 1478 1474 1469 1465 1460 1455
1478 1478 1484 1488 1492 1490 1470 1467 1465 1468 1474 1466 1465 1468 1471 1474 1480 1479 1479 1480 1481 1484 1486 1488 1490 1492 1493 1494 1494 1493 1493 1492 1490 1488 1486 1483 1480 1476 1471 1467 1462 1458 1453 1448
1481 1481 1484 1487 1488 1478 1465 1466 1467 1478 1473 1468 1467 1468 1470 1473 1475 1477 1477 1479 1481 1483 1485 1487 1488 1490 1490 1490 1490 1490 1489 1487 1486 1483 1480 1477 1474 1470 1465 1460 1456 1451 1446 1440
1472 1477 1479 1480 1485 1479 1464 1465 1468 1467 1466 1466 1467 1468 1470 1472 1473 1475 1477 1478 1480 1482 1484 1485 1486 1487 1487 1487 1487 1486 1484 1483 1480 1477 1474 1471 1467 1463 1458 1453 1448 1444 1439 1433
1459 1462 1463 1465 1466 1458 1458 1460 1461 1462 1464 1465 1466 1467 1468 1470 1472 1474 1476 1477 1479 1480 1482 1483 1483 1484 1484 1484 1483 1481 1480 1477 1474 1471 1467 1464 1459 1455 1451 1446 1441 1436 1431 1425
1453 1453 1455 1456 1455 1455 1457 1459 1460 1461 1462 1463 1464 1466 1467 1468 1470 1472 1474 1476 1477 1478 1479 1480 1480 1480 1480 1480 1479 1477 1475 1472 1468 1464 1460 1456 1452 1447 1443 1439 1434 1429 1424 1418
1447 1452 1454 1454 1453 1454 1455 1457 1458 1459 1460 1461 1462 1464 1465 1466 1468 1470 1472 1473 1475 1476 1476 1477 1477 1477 1476 1476 1474 1472 1469 1466 1461 1457 1453 1449 1444 1440 1435 1430 1426 1421 1417 1413
1445 1449 1452 1452 1449 1451 1453 1454 1456 1457 1458 1459 1460 1462 1463 1465 1466 1468 1469 1471 1472 1473 1474 1474 1474 1473 1472 1471 1468 1466 1463 1459 1455 1450 1446 1441 1437 1432 1427 1421 1416 1412 1409 1404